| time (UTC) | temp F | wind direction | speed MPH | gust MPH | rain 1hr in | rain 24hr in | rain mn in | humidity % | barometer mb |
| 20260510180002 | 85 | 151 | 7.0 | 16.0 | 0.00 | 0.11 | 0.00 | 100 | 1017.6 |
| 20260510175504 | 85 | 120 | 5.0 | 16.0 | 0.00 | 0.11 | 0.00 | 100 | 1017.5 |
| 20260510175002 | 86 | 187 | 9.0 | 16.0 | 0.00 | 0.11 | 0.00 | 100 | 1017.6 |
| 20260510174502 | 86 | 118 | 2.0 | 15.0 | 0.00 | 0.11 | 0.00 | 100 | 1017.7 |
| 20260510174002 | 86 | 146 | 6.0 | 16.0 | 0.00 | 0.11 | 0.00 | 100 | 1017.7 |
| 20260510173502 | 87 | 93 | 4.0 | 11.0 | 0.00 | 0.11 | 0.00 | 100 | 1017.7 |
| 20260510173002 | 88 | 113 | 5.0 | 11.0 | 0.00 | 0.11 | 0.00 | 100 | 1017.9 |
| 20260510172503 | 89 | 172 | 3.0 | 9.0 | 0.00 | 0.11 | 0.00 | 100 | 1017.8 |
| 20260510172100 | 90 | 181 | 1.0 | 7.0 | 0.00 | 0.11 | 0.00 | 100 | 1017.8 |
| 20260510171607 | 89 | 234 | 3.0 | 7.0 | 0.00 | 0.11 | 0.00 | 100 | 1017.9 |
| 20260510171100 | 89 | 175 | 3.0 | 8.0 | 0.00 | 0.11 | 0.00 | 100 | 1017.9 |
| 20260510170656 | 89 | 227 | 0.0 | 9.0 | 0.00 | 0.11 | 0.00 | 100 | 1018.0 |
| 20260510170054 | 89 | 235 | 4.0 | 9.0 | 0.00 | 0.11 | 0.00 | 100 | 1018.1 |
| 20260510165553 | 90 | 219 | 2.0 | 7.0 | 0.00 | 0.11 | 0.00 | 100 | 1018.1 |
| 20260510165050 | 89 | 231 | 2.0 | 9.0 | 0.00 | 0.11 | 0.00 | 100 | 1018.1 |
| 20260510164550 | 90 | 164 | 2.0 | 11.0 | 0.00 | 0.11 | 0.00 | 100 | 1018.2 |
| 20260510164048 | 89 | 221 | 4.0 | 11.0 | 0.00 | 0.11 | 0.00 | 100 | 1018.2 |
| 20260510163548 | 88 | 169 | 4.0 | 10.0 | 0.00 | 0.11 | 0.00 | 100 | 1018.3 |
| 20260510163047 | 88 | 257 | 3.0 | 7.0 | 0.00 | 0.11 | 0.00 | 100 | 1018.3 |
| 20260510162543 | 88 | 234 | 2.0 | 7.0 | 0.00 | 0.11 | 0.00 | 100 | 1018.4 |
| 20260510162043 | 89 | 215 | 3.0 | 9.0 | 0.00 | 0.11 | 0.00 | 100 | 1018.3 |
| 20260510161540 | 89 | 239 | 2.0 | 8.0 | 0.00 | 0.11 | 0.00 | 100 | 1018.3 |
| 20260510161040 | 89 | 208 | 3.0 | 10.0 | 0.00 | 0.11 | 0.00 | 100 | 1018.3 |
| 20260510160537 | 89 | 259 | 3.0 | 10.0 | 0.00 | 0.11 | 0.00 | 100 | 1018.3 |
| 20260510160036 | 87 | 171 | 3.0 | 13.0 | 0.00 | 0.11 | 0.00 | 100 | 1018.4 |
| 20260510155534 | 88 | 242 | 3.0 | 13.0 | 0.00 | 0.11 | 0.00 | 100 | 1018.4 |
| 20260510155033 | 88 | 219 | 3.0 | 10.0 | 0.00 | 0.11 | 0.00 | 100 | 1018.5 |
| 20260510154538 | 87 | 269 | 2.0 | 8.0 | 0.00 | 0.11 | 0.00 | 100 | 1018.4 |
| 20260510154031 | 87 | 182 | 3.0 | 8.0 | 0.00 | 0.11 | 0.00 | 100 | 1018.5 |
| 20260510153529 | 87 | 177 | 4.0 | 8.0 | 0.00 | 0.11 | 0.00 | 100 | 1018.5 |
| 20260510153027 | 87 | 223 | 1.0 | 7.0 | 0.00 | 0.11 | 0.00 | 100 | 1018.6 |
| 20260510152526 | 87 | 201 | 3.0 | 10.0 | 0.00 | 0.11 | 0.00 | 100 | 1018.6 |
| 20260510152024 | 87 | 269 | 4.0 | 11.0 | 0.00 | 0.11 | 0.00 | 100 | 1018.4 |
| 20260510151524 | 86 | 270 | 6.0 | 11.0 | 0.00 | 0.11 | 0.00 | 100 | 1018.4 |
| 20260510151020 | 86 | 236 | 3.0 | 8.0 | 0.00 | 0.11 | 0.00 | 100 | 1018.3 |
| 20260510150519 | 86 | 221 | 3.0 | 11.0 | 0.00 | 0.11 | 0.00 | 100 | 1018.3 |
| 20260510150018 | 86 | 223 | 4.0 | 11.0 | 0.00 | 0.11 | 0.00 | 100 | 1018.2 |
| 20260510145515 | 85 | 244 | 3.0 | 8.0 | 0.00 | 0.11 | 0.00 | 100 | 1018.2 |
| 20260510145014 | 85 | 235 | 3.0 | 12.0 | 0.00 | 0.11 | 0.00 | 100 | 1018.3 |
| 20260510144513 | 85 | 222 | 3.0 | 12.0 | 0.00 | 0.11 | 0.00 | 100 | 1018.3 |
| 20260510144013 | 84 | 201 | 3.0 | 11.0 | 0.00 | 0.11 | 0.00 | 100 | 1018.3 |
| 20260510143512 | 84 | 211 | 3.0 | 11.0 | 0.00 | 0.11 | 0.00 | 100 | 1018.2 |
| 20260510143015 | 84 | 235 | 1.0 | 11.0 | 0.00 | 0.11 | 0.00 | 100 | 1018.2 |
| 20260510142512 | 84 | 242 | 4.0 | 12.0 | 0.00 | 0.11 | 0.00 | 100 | 1018.2 |
| 20260510142013 | 84 | 248 | 4.0 | 10.0 | 0.00 | 0.11 | 0.00 | 100 | 1018.1 |
| 20260510141509 | 84 | 229 | 3.0 | 9.0 | 0.00 | 0.11 | 0.00 | 100 | 1018.1 |
| 20260510141009 | 84 | 227 | 2.0 | 9.0 | 0.00 | 0.11 | 0.00 | 100 | 1018.0 |
| 20260510140507 | 83 | 197 | 2.0 | 8.0 | 0.00 | 0.11 | 0.00 | 100 | 1018.0 |
| 20260510140006 | 83 | 244 | 0.0 | 8.0 | 0.00 | 0.11 | 0.00 | 100 | 1018.0 |
| 20260510135505 | 82 | 246 | 2.0 | 9.0 | 0.00 | 0.11 | 0.00 | 100 | 1018.0 |
| 20260510135004 | 82 | 171 | 3.0 | 9.0 | 0.00 | 0.11 | 0.00 | 100 | 1018.2 |
| 20260510134504 | 82 | 207 | 2.0 | 7.0 | 0.00 | 0.11 | 0.00 | 100 | 1018.2 |
| 20260510134003 | 82 | 217 | 2.0 | 8.0 | 0.00 | 0.11 | 0.00 | 100 | 1018.3 |
| 20260510133502 | 81 | 230 | 4.0 | 8.0 | 0.00 | 0.11 | 0.00 | 100 | 1018.3 |
| 20260510133001 | 81 | 246 | 2.0 | 7.0 | 0.00 | 0.11 | 0.00 | 100 | 1018.2 |
| 20260510132600 | 81 | 209 | 1.0 | 9.0 | 0.00 | 0.11 | 0.00 | 100 | 1018.0 |
| 20260510132059 | 81 | 197 | 4.0 | 9.0 | 0.00 | 0.11 | 0.00 | 100 | 1018.1 |
| 20260510131558 | 81 | 207 | 2.0 | 8.0 | 0.00 | 0.11 | 0.00 | 100 | 1018.1 |
| 20260510131057 | 80 | 234 | 3.0 | 9.0 | 0.00 | 0.11 | 0.00 | 100 | 1017.9 |
| 20260510130557 | 79 | 215 | 2.0 | 5.0 | 0.00 | 0.11 | 0.00 | 100 | 1017.8 |
| 20260510130055 | 79 | 175 | 2.0 | 7.0 | 0.00 | 0.11 | 0.00 | 100 | 1017.8 |
| 20260510125553 | 78 | 195 | 3.0 | 7.0 | 0.00 | 0.11 | 0.00 | 100 | 1018.0 |
| 20260510125052 | 78 | 207 | 1.0 | 5.0 | 0.00 | 0.11 | 0.00 | 100 | 1017.9 |
| 20260510124556 | 77 | 228 | 1.0 | 7.0 | 0.00 | 0.11 | 0.00 | 100 | 1017.7 |
| 20260510124051 | 77 | 183 | 2.0 | 8.0 | 0.00 | 0.11 | 0.00 | 100 | 1017.6 |
| 20260510123551 | 76 | 171 | 3.0 | 8.0 | 0.00 | 0.11 | 0.00 | 100 | 1017.6 |
| 20260510123054 | 76 | 201 | 1.0 | 8.0 | 0.00 | 0.11 | 0.00 | 100 | 1017.6 |
| 20260510122550 | 76 | 190 | 1.0 | 6.0 | 0.00 | 0.11 | 0.00 | 100 | 1017.7 |
| 20260510122048 | 75 | 171 | 2.0 | 6.0 | 0.00 | 0.11 | 0.00 | 100 | 1017.5 |
| 20260510121548 | 75 | 182 | 1.0 | 5.0 | 0.00 | 0.11 | 0.00 | 100 | 1017.4 |
| 20260510121048 | 75 | 173 | 2.0 | 5.0 | 0.00 | 0.11 | 0.00 | 100 | 1017.4 |
| 20260510120548 | 75 | 190 | 0.0 | 0.0 | 0.00 | 0.11 | 0.00 | 100 | 1017.3 |
| 20260510120047 | 75 | 194 | 0.0 | 1.0 | 0.00 | 0.11 | 0.00 | 100 | 1017.3 |
| 20260510115546 | 74 | 194 | 0.0 | 1.0 | 0.00 | 0.11 | 0.00 | 100 | 1017.2 |
| 20260510115046 | 74 | 191 | 0.0 | 2.0 | 0.00 | 0.11 | 0.00 | 100 | 1017.1 |
| 20260510114545 | 74 | 191 | 0.0 | 2.0 | 0.00 | 0.11 | 0.00 | 100 | 1017.2 |
| 20260510114048 | 74 | 192 | 0.0 | 0.0 | 0.00 | 0.11 | 0.00 | 100 | 1016.9 |
| 20260510113545 | 74 | 192 | 0.0 | 0.0 | 0.00 | 0.11 | 0.00 | 100 | 1016.9 |
| 20260510113045 | 74 | 193 | 0.0 | 0.0 | 0.00 | 0.11 | 0.00 | 100 | 1016.9 |
| 20260510112544 | 74 | 217 | 0.0 | 0.0 | 0.00 | 0.11 | 0.00 | 100 | 1016.9 |
| 20260510112047 | 74 | 221 | 0.0 | 0.0 | 0.00 | 0.11 | 0.00 | 100 | 1016.8 |
| 20260510111554 | 74 | 225 | 0.0 | 0.0 | 0.00 | 0.11 | 0.00 | 100 | 1016.8 |
| 20260510111045 | 74 | 225 | 0.0 | 0.0 | 0.00 | 0.11 | 0.00 | 100 | 1016.7 |
| 20260510110542 | 74 | 229 | 0.0 | 0.0 | 0.00 | 0.11 | 0.00 | 100 | 1016.7 |
| 20260510110044 | 74 | 231 | 0.0 | 0.0 | 0.00 | 0.11 | 0.00 | 100 | 1016.6 |
| 20260510105544 | 74 | 231 | 0.0 | 0.0 | 0.00 | 0.11 | 0.00 | 100 | 1016.6 |
| 20260510105042 | 74 | 231 | 0.0 | 0.0 | 0.00 | 0.11 | 0.00 | 100 | 1016.6 |
| 20260510104601 | 74 | 229 | 0.0 | 0.0 | 0.00 | 0.11 | 0.00 | 100 | 1016.5 |
| 20260510104044 | 74 | 229 | 0.0 | 0.0 | 0.00 | 0.11 | 0.00 | 100 | 1016.5 |
| 20260510103541 | 74 | 229 | 0.0 | 0.0 | 0.00 | 0.11 | 0.00 | 100 | 1016.4 |
| 20260510103043 | 74 | 229 | 0.0 | 0.0 | 0.00 | 0.11 | 0.00 | 100 | 1016.3 |
| 20260510102540 | 74 | 229 | 0.0 | 0.0 | 0.00 | 0.11 | 0.00 | 100 | 1016.3 |
| 20260510102041 | 74 | 226 | 0.0 | 0.0 | 0.00 | 0.11 | 0.00 | 100 | 1016.1 |
| 20260510101540 | 74 | 225 | 0.0 | 0.0 | 0.00 | 0.11 | 0.00 | 100 | 1016.0 |
| 20260510101042 | 74 | 225 | 0.0 | 0.0 | 0.00 | 0.11 | 0.00 | 100 | 1015.8 |
| 20260510100542 | 74 | 225 | 0.0 | 0.0 | 0.00 | 0.11 | 0.00 | 100 | 1015.9 |
| 20260510100039 | 74 | 225 | 0.0 | 0.0 | 0.00 | 0.11 | 0.00 | 100 | 1015.8 |
| 20260510095543 | 74 | 225 | 0.0 | 0.0 | 0.00 | 0.11 | 0.00 | 100 | 1015.8 |
| 20260510095038 | 74 | 225 | 0.0 | 0.0 | 0.00 | 0.11 | 0.00 | 100 | 1015.7 |
| 20260510094541 | 74 | 225 | 0.0 | 0.0 | 0.00 | 0.11 | 0.00 | 100 | 1015.7 |
| 20260510094041 | 74 | 225 | 0.0 | 0.0 | 0.00 | 0.11 | 0.00 | 100 | 1015.6 |
| 20260510093537 | 74 | 225 | 0.0 | 0.0 | 0.00 | 0.11 | 0.00 | 100 | 1015.7 |
| 20260510093037 | 74 | 225 | 0.0 | 0.0 | 0.00 | 0.11 | 0.00 | 100 | 1015.6 |
| 20260510092537 | 74 | 225 | 0.0 | 0.0 | 0.00 | 0.11 | 0.00 | 100 | 1015.7 |
| 20260510092039 | 74 | 225 | 0.0 | 0.0 | 0.00 | 0.11 | 0.00 | 100 | 1015.8 |
| 20260510091536 | 74 | 225 | 0.0 | 0.0 | 0.00 | 0.11 | 0.00 | 100 | 1015.7 |
| 20260510091037 | 74 | 225 | 0.0 | 0.0 | 0.00 | 0.11 | 0.00 | 100 | 1015.7 |
| 20260510090536 | 74 | 225 | 0.0 | 0.0 | 0.00 | 0.11 | 0.00 | 100 | 1015.6 |
| 20260510090042 | 74 | 225 | 0.0 | 0.0 | 0.00 | 0.11 | 0.00 | 100 | 1015.6 |
| 20260510085533 | 74 | 225 | 0.0 | 0.0 | 0.00 | 0.11 | 0.00 | 100 | 1015.5 |
| 20260510085034 | 74 | 225 | 0.0 | 0.0 | 0.00 | 0.11 | 0.00 | 100 | 1015.5 |
| 20260510084534 | 74 | 225 | 0.0 | 0.0 | 0.00 | 0.11 | 0.00 | 100 | 1015.5 |
| 20260510084034 | 74 | 225 | 0.0 | 0.0 | 0.00 | 0.11 | 0.00 | 100 | 1015.5 |
| 20260510083533 | 74 | 225 | 0.0 | 3.0 | 0.00 | 0.11 | 0.00 | 100 | 1015.5 |
| 20260510083034 | 74 | 225 | 1.0 | 3.0 | 0.00 | 0.11 | 0.00 | 100 | 1015.4 |
| 20260510082532 | 75 | 288 | 0.0 | 0.0 | 0.00 | 0.11 | 0.00 | 100 | 1015.3 |
| 20260510082033 | 75 | 288 | 0.0 | 1.0 | 0.00 | 0.11 | 0.00 | 100 | 1015.4 |
| 20260510081531 | 75 | 288 | 0.0 | 1.0 | 0.00 | 0.11 | 0.00 | 100 | 1015.3 |
| 20260510081031 | 75 | 288 | 0.0 | 1.0 | 0.00 | 0.11 | 0.00 | 100 | 1015.3 |
| 20260510080534 | 75 | 288 | 0.0 | 0.0 | 0.00 | 0.11 | 0.00 | 100 | 1015.3 |
| 20260510080033 | 75 | 288 | 0.0 | 0.0 | 0.00 | 0.11 | 0.00 | 100 | 1015.3 |
| 20260510075531 | 75 | 288 | 0.0 | 0.0 | 0.00 | 0.11 | 0.00 | 100 | 1015.3 |
| 20260510075031 | 75 | 288 | 0.0 | 0.0 | 0.00 | 0.11 | 0.00 | 100 | 1015.2 |
| 20260510074534 | 75 | 288 | 0.0 | 0.0 | 0.00 | 0.11 | 0.00 | 100 | 1015.2 |
| 20260510074029 | 75 | 288 | 0.0 | 0.0 | 0.00 | 0.11 | 0.00 | 100 | 1015.3 |
| 20260510073534 | 75 | 288 | 0.0 | 0.0 | 0.00 | 0.11 | 0.00 | 100 | 1015.3 |
| 20260510073031 | 75 | 288 | 0.0 | 1.0 | 0.00 | 0.11 | 0.00 | 100 | 1015.4 |
| 20260510072529 | 75 | 288 | 0.0 | 2.0 | 0.00 | 0.11 | 0.00 | 100 | 1015.3 |
| 20260510072029 | 75 | 288 | 0.0 | 1.0 | 0.00 | 0.11 | 0.00 | 100 | 1015.3 |
| 20260510071527 | 75 | 287 | 0.0 | 0.0 | 0.00 | 0.11 | 0.00 | 100 | 1015.3 |
| 20260510071027 | 75 | 286 | 0.0 | 2.0 | 0.00 | 0.11 | 0.00 | 100 | 1015.3 |
| 20260510070530 | 75 | 286 | 0.0 | 4.0 | 0.00 | 0.11 | 0.00 | 100 | 1015.3 |
| 20260510070027 | 75 | 302 | 0.0 | 4.0 | 0.00 | 0.11 | 0.00 | 100 | 1015.3 |
| 20260510065529 | 75 | 304 | 0.0 | 5.0 | 0.00 | 0.11 | 0.00 | 100 | 1015.4 |
| 20260510065027 | 75 | 279 | 1.0 | 5.0 | 0.00 | 0.11 | 0.00 | 100 | 1015.4 |
| 20260510064528 | 75 | 321 | 1.0 | 4.0 | 0.00 | 0.11 | 0.00 | 100 | 1015.4 |
| 20260510064024 | 75 | 292 | 0.0 | 3.0 | 0.00 | 0.11 | 0.00 | 100 | 1015.5 |
| 20260510063524 | 75 | 274 | 0.0 | 3.0 | 0.00 | 0.11 | 0.00 | 100 | 1015.6 |
| 20260510063027 | 75 | 275 | 0.0 | 3.0 | 0.00 | 0.11 | 0.00 | 100 | 1015.6 |
| 20260510062523 | 75 | 277 | 0.0 | 3.0 | 0.00 | 0.11 | 0.00 | 100 | 1015.7 |
| 20260510062025 | 75 | 248 | 0.0 | 4.0 | 0.00 | 0.11 | 0.00 | 100 | 1015.7 |
| 20260510061529 | 75 | 242 | 1.0 | 5.0 | 0.00 | 0.11 | 0.00 | 100 | 1015.7 |
| 20260510061022 | 75 | 242 | 1.0 | 4.0 | 0.00 | 0.11 | 0.00 | 100 | 1015.8 |
| 20260510060522 | 75 | 243 | 0.0 | 0.0 | 0.00 | 0.11 | 0.00 | 100 | 1015.7 |
| 20260510060041 | 75 | 243 | 0.0 | 0.0 | 0.00 | 0.11 | 0.00 | 100 | 1015.7 |
| 20260510055521 | 75 | 243 | 0.0 | 0.0 | 0.00 | 0.11 | 0.00 | 100 | 1015.6 |
| 20260510055020 | 75 | 243 | 0.0 | 0.0 | 0.00 | 0.11 | 0.00 | 100 | 1015.7 |
| 20260510054521 | 76 | 228 | 0.0 | 0.0 | 0.00 | 0.11 | 0.00 | 100 | 1015.8 |
| 20260510054019 | 76 | 227 | 0.0 | 1.0 | 0.00 | 0.11 | 0.00 | 100 | 1015.9 |
| 20260510053519 | 76 | 227 | 0.0 | 1.0 | 0.00 | 0.11 | 0.00 | 100 | 1015.9 |
| 20260510053018 | 76 | 227 | 0.0 | 0.0 | 0.00 | 0.11 | 0.00 | 100 | 1016.1 |
| 20260510052518 | 76 | 200 | 0.0 | 0.0 | 0.00 | 0.11 | 0.00 | 100 | 1016.1 |
| 20260510052018 | 76 | 197 | 0.0 | 0.0 | 0.00 | 0.11 | 0.00 | 100 | 1016.1 |
| 20260510051518 | 76 | 192 | 0.0 | 0.0 | 0.00 | 0.11 | 0.00 | 100 | 1016.2 |
| 20260510051017 | 76 | 191 | 0.0 | 0.0 | 0.00 | 0.11 | 0.00 | 100 | 1016.1 |
| 20260510050517 | 76 | 190 | 0.0 | 0.0 | 0.00 | 0.11 | 0.00 | 100 | 1016.3 |
| 20260510050023 | 76 | 190 | 0.0 | 0.0 | 0.00 | 0.11 | 0.00 | 100 | 1016.3 |
| 20260510045519 | 76 | 190 | 0.0 | 0.0 | 0.00 | 0.11 | 0.00 | 100 | 1016.3 |
| 20260510045016 | 76 | 190 | 0.0 | 0.0 | 0.00 | 0.11 | 0.00 | 100 | 1016.3 |
| 20260510044517 | 76 | 190 | 0.0 | 0.0 | 0.00 | 0.11 | 0.00 | 100 | 1016.2 |
| 20260510044019 | 76 | 190 | 0.0 | 0.0 | 0.00 | 0.11 | 0.00 | 100 | 1016.2 |
| 20260510043517 | 76 | 190 | 0.0 | 0.0 | 0.00 | 0.11 | 0.00 | 100 | 1016.2 |
| 20260510043014 | 76 | 190 | 0.0 | 0.0 | 0.00 | 0.11 | 0.00 | 100 | 1016.3 |
| 20260510042514 | 77 | 190 | 0.0 | 0.0 | 0.00 | 0.11 | 0.00 | 100 | 1016.4 |
| 20260510042014 | 77 | 190 | 0.0 | 0.0 | 0.00 | 0.11 | 0.00 | 100 | 1016.5 |
| 20260510041516 | 76 | 190 | 0.0 | 0.0 | 0.00 | 0.11 | 0.00 | 100 | 1016.4 |
| 20260510041012 | 77 | 190 | 0.0 | 0.0 | 0.00 | 0.11 | 0.00 | 100 | 1016.5 |
| 20260510040511 | 77 | 190 | 0.0 | 0.0 | 0.00 | 0.11 | 0.00 | 100 | 1016.5 |
| 20260510040010 | 77 | 190 | 0.0 | 0.0 | 0.00 | 0.11 | 0.00 | 100 | 1016.5 |
| 20260510035510 | 77 | 190 | 0.0 | 0.0 | 0.00 | 0.11 | 0.00 | 100 | 1016.5 |
| 20260510035007 | 77 | 190 | 0.0 | 2.0 | 0.00 | 0.11 | 0.00 | 100 | 1016.6 |
| 20260510034507 | 77 | 190 | 0.0 | 3.0 | 0.00 | 0.11 | 0.11 | 100 | 1016.6 |
| 20260510034007 | 77 | 166 | 0.0 | 2.0 | 0.00 | 0.11 | 0.11 | 100 | 1016.5 |
| 20260510033506 | 77 | 155 | 0.0 | 0.0 | 0.00 | 0.11 | 0.11 | 100 | 1016.4 |
| 20260510033005 | 76 | 155 | 0.0 | 0.0 | 0.00 | 0.11 | 0.11 | 100 | 1016.4 |
| 20260510032506 | 76 | 155 | 0.0 | 0.0 | 0.00 | 0.11 | 0.11 | 100 | 1016.3 |
| 20260510032005 | 76 | 155 | 0.0 | 6.0 | 0.00 | 0.11 | 0.11 | 100 | 1016.2 |
| 20260510031505 | 76 | 155 | 2.0 | 6.0 | 0.00 | 0.11 | 0.11 | 100 | 1016.3 |
| 20260510031003 | 76 | 190 | 1.0 | 3.0 | 0.00 | 0.11 | 0.11 | 100 | 1016.2 |
| 20260510030503 | 77 | 311 | 0.0 | 1.0 | 0.00 | 0.11 | 0.11 | 100 | 1016.1 |
| 20260510030103 | 77 | 310 | 0.0 | 2.0 | 0.00 | 0.11 | 0.11 | 100 | 1016.0 |
| 20260510025504 | 77 | 310 | 0.0 | 1.0 | 0.00 | 0.11 | 0.11 | 100 | 1015.9 |
| 20260510025005 | 77 | 310 | 0.0 | 3.0 | 0.00 | 0.11 | 0.11 | 100 | 1016.0 |
| 20260510024504 | 77 | 311 | 0.0 | 3.0 | 0.00 | 0.11 | 0.11 | 100 | 1015.8 |
| 20260510024004 | 77 | 312 | 0.0 | 3.0 | 0.00 | 0.11 | 0.11 | 100 | 1015.8 |
| 20260510023502 | 77 | 348 | 1.0 | 4.0 | 0.01 | 0.11 | 0.11 | 100 | 1015.8 |
| 20260510023002 | 76 | 337 | 2.0 | 4.0 | 0.02 | 0.11 | 0.11 | 100 | 1015.8 |
| 20260510022504 | 77 | 348 | 0.0 | 4.0 | 0.11 | 0.11 | 0.11 | 100 | 1015.7 |
| 20260510022002 | 76 | 351 | 1.0 | 4.0 | 0.11 | 0.11 | 0.11 | 100 | 1015.5 |
| 20260510021502 | 76 | 12 | 0.0 | 4.0 | 0.11 | 0.11 | 0.11 | 100 | 1015.5 |
| 20260510021001 | 76 | 355 | 1.0 | 5.0 | 0.11 | 0.11 | 0.11 | 100 | 1015.4 |
| 20260510020502 | 76 | 342 | 1.0 | 5.0 | 0.11 | 0.11 | 0.11 | 100 | 1015.4 |
| 20260510020002 | 76 | 350 | 0.0 | 6.0 | 0.11 | 0.11 | 0.11 | 100 | 1015.3 |
| 20260510015502 | 76 | 348 | 2.0 | 6.0 | 0.11 | 0.11 | 0.11 | 100 | 1015.3 |
| 20260510015003 | 77 | 346 | 2.0 | 6.0 | 0.11 | 0.11 | 0.11 | 100 | 1015.4 |
| 20260510014501 | 77 | 330 | 0.0 | 9.0 | 0.11 | 0.11 | 0.11 | 100 | 1015.4 |
| 20260510014001 | 77 | 343 | 4.0 | 9.0 | 0.11 | 0.11 | 0.11 | 100 | 1015.3 |
| 20260510013501 | 78 | 24 | 2.0 | 12.0 | 0.10 | 0.10 | 0.10 | 100 | 1015.3 |
| 20260510013010 | 80 | 309 | 2.0 | 12.0 | 0.08 | 0.08 | 0.08 | 100 | 1015.5 |
| 20260510012500 | 83 | 325 | 5.0 | 11.0 | 0.00 | 0.00 | 0.00 | 100 | 1015.5 |
| 20260510012101 | 84 | 316 | 5.0 | 10.0 | 0.00 | 0.00 | 0.00 | 100 | 1015.1 |
| 20260510011625 | 84 | 355 | 1.0 | 9.0 | 0.00 | 0.00 | 0.00 | 100 | 1014.8 |
| 20260510011100 | 84 | 26 | 2.0 | 7.0 | 0.00 | 0.00 | 0.00 | 100 | 1014.6 |
| 20260510010600 | 83 | 291 | 1.0 | 6.0 | 0.00 | 0.00 | 0.00 | 100 | 1014.6 |
| 20260510010110 | 83 | 332 | 1.0 | 6.0 | 0.00 | 0.00 | 0.00 | 100 | 1014.6 |
| 20260510005601 | 83 | 316 | 2.0 | 13.0 | 0.00 | 0.00 | 0.00 | 100 | 1014.3 |
| 20260510005059 | 83 | 160 | 6.0 | 13.0 | 0.00 | 0.00 | 0.00 | 100 | 1014.0 |
| 20260510004600 | 82 | 153 | 4.0 | 14.0 | 0.00 | 0.00 | 0.00 | 100 | 1013.5 |
| 20260510004059 | 82 | 154 | 5.0 | 14.0 | 0.00 | 0.00 | 0.00 | 100 | 1013.4 |
| 20260510003601 | 82 | 137 | 6.0 | 12.0 | 0.00 | 0.00 | 0.00 | 100 | 1013.2 |
| 20260510003107 | 82 | 155 | 4.0 | 14.0 | 0.00 | 0.00 | 0.00 | 100 | 1013.2 |
| 20260510002558 | 82 | 165 | 7.0 | 15.0 | 0.00 | 0.00 | 0.00 | 100 | 1013.2 |
| 20260510002502 | 82 | 173 | 7.0 | 15.0 | 0.00 | 0.00 | 0.00 | 100 | 1013.2 |
| 20260510002058 | 82 | 188 | 7.0 | 12.0 | 0.00 | 0.00 | 0.00 | 100 | 1013.2 |
| 20260510001558 | 82 | 129 | 7.0 | 14.0 | 0.00 | 0.00 | 0.00 | 100 | 1013.1 |
| 20260510001057 | 83 | 148 | 4.0 | 14.0 | 0.00 | 0.00 | 0.00 | 100 | 1013.1 |
| 20260510000556 | 83 | 167 | 7.0 | 11.0 | 0.00 | 0.00 | 0.00 | 100 | 1013.1 |
| 20260510000059 | 83 | 184 | 5.0 | 15.0 | 0.00 | 0.00 | 0.00 | 100 | 1013.0 |
| 20260509235557 | 83 | 147 | 6.0 | 15.0 | 0.00 | 0.00 | 0.00 | 100 | 1012.9 |
| 20260509235057 | 83 | 155 | 5.0 | 13.0 | 0.00 | 0.00 | 0.00 | 100 | 1013.0 |
| 20260509234606 | 83 | 159 | 5.0 | 14.0 | 0.00 | 0.00 | 0.00 | 100 | 1012.9 |
| 20260509234056 | 83 | 174 | 5.0 | 14.0 | 0.00 | 0.00 | 0.00 | 100 | 1013.0 |
| 20260509233556 | 83 | 173 | 5.0 | 17.0 | 0.00 | 0.00 | 0.00 | 100 | 1012.9 |
| 20260509233103 | 83 | 138 | 7.0 | 19.0 | 0.00 | 0.00 | 0.00 | 100 | 1012.8 |
| 20260509232558 | 83 | 167 | 8.0 | 19.0 | 0.00 | 0.00 | 0.00 | 100 | 1012.7 |
| 20260509232056 | 83 | 150 | 8.0 | 17.0 | 0.00 | 0.00 | 0.00 | 100 | 1012.7 |
| 20260509231603 | 84 | 142 | 6.0 | 15.0 | 0.00 | 0.00 | 0.00 | 100 | 1012.8 |
| 20260509231055 | 84 | 141 | 7.0 | 15.0 | 0.00 | 0.00 | 0.00 | 100 | 1012.7 |
| 20260509230555 | 84 | 144 | 5.0 | 19.0 | 0.00 | 0.00 | 0.00 | 100 | 1012.8 |
| 20260509230057 | 84 | 150 | 10.0 | 18.0 | 0.00 | 0.00 | 0.00 | 100 | 1012.7 |
| 20260509225554 | 84 | 213 | 9.0 | 18.0 | 0.00 | 0.00 | 0.00 | 100 | 1012.9 |
| 20260509225502 | 84 | 162 | 9.0 | 18.0 | 0.00 | 0.00 | 0.00 | 100 | 1012.9 |
| 20260509225059 | 84 | 176 | 6.0 | 16.0 | 0.00 | 0.00 | 0.00 | 100 | 1012.8 |
| 20260509224604 | 84 | 169 | 11.0 | 19.0 | 0.00 | 0.00 | 0.00 | 100 | 1012.7 |
| 20260509224057 | 84 | 171 | 6.0 | 20.0 | 0.00 | 0.00 | 0.00 | 100 | 1012.7 |
| 20260509223554 | 84 | 159 | 7.0 | 20.0 | 0.00 | 0.00 | 0.00 | 100 | 1012.7 |
| 20260509223055 | 84 | 134 | 10.0 | 20.0 | 0.00 | 0.00 | 0.00 | 100 | 1012.7 |
| 20260509222556 | 84 | 163 | 8.0 | 22.0 | 0.00 | 0.00 | 0.00 | 100 | 1012.7 |
| 20260509222054 | 84 | 151 | 9.0 | 22.0 | 0.00 | 0.00 | 0.00 | 100 | 1012.7 |
| 20260509221553 | 85 | 157 | 9.0 | 19.0 | 0.00 | 0.00 | 0.00 | 100 | 1012.7 |
| 20260509221053 | 85 | 155 | 10.0 | 19.0 | 0.00 | 0.00 | 0.00 | 100 | 1012.8 |
| 20260509220552 | 85 | 155 | 8.0 | 17.0 | 0.00 | 0.00 | 0.00 | 100 | 1012.9 |
| 20260509220053 | 85 | 186 | 6.0 | 22.0 | 0.00 | 0.00 | 0.00 | 100 | 1012.8 |
| 20260509215552 | 85 | 118 | 9.0 | 22.0 | 0.00 | 0.00 | 0.00 | 100 | 1012.8 |
| 20260509214551 | 85 | 115 | 12.0 | 22.0 | 0.00 | 0.00 | 0.00 | 100 | 1012.8 |
| 20260509214051 | 84 | 134 | 11.0 | 22.0 | 0.00 | 0.00 | 0.00 | 100 | 1012.8 |
| 20260509213551 | 85 | 154 | 9.0 | 17.0 | 0.00 | 0.00 | 0.00 | 100 | 1012.8 |
| 20260509213102 | 85 | 138 | 11.0 | 17.0 | 0.00 | 0.00 | 0.00 | 100 | 1012.9 |
| 20260509212550 | 85 | 165 | 6.0 | 18.0 | 0.00 | 0.00 | 0.00 | 100 | 1012.8 |
| 20260509212050 | 85 | 168 | 10.0 | 21.0 | 0.00 | 0.00 | 0.00 | 100 | 1012.8 |
| 20260509211611 | 85 | 159 | 9.0 | 21.0 | 0.00 | 0.00 | 0.00 | 100 | 1012.8 |
| 20260509211051 | 85 | 148 | 7.0 | 19.0 | 0.00 | 0.00 | 0.00 | 100 | 1012.9 |
| 20260509210549 | 85 | 149 | 12.0 | 19.0 | 0.00 | 0.00 | 0.00 | 100 | 1012.8 |
| 20260509210056 | 84 | 161 | 9.0 | 22.0 | 0.00 | 0.00 | 0.00 | 100 | 1012.9 |
| 20260509205550 | 85 | 163 | 11.0 | 22.0 | 0.00 | 0.00 | 0.00 | 100 | 1012.9 |
| 20260509205048 | 84 | 133 | 11.0 | 20.0 | 0.00 | 0.00 | 0.00 | 100 | 1013.0 |
| 20260509204559 | 85 | 171 | 12.0 | 20.0 | 0.00 | 0.00 | 0.00 | 100 | 1012.9 |
| 20260509204048 | 86 | 123 | 6.0 | 13.0 | 0.00 | 0.00 | 0.00 | 100 | 1013.0 |
| 20260509203547 | 86 | 180 | 6.0 | 18.0 | 0.00 | 0.00 | 0.00 | 100 | 1012.9 |
| 20260509203057 | 85 | 140 | 9.0 | 18.0 | 0.00 | 0.00 | 0.00 | 100 | 1012.9 |
| 20260509202548 | 85 | 174 | 9.0 | 17.0 | 0.00 | 0.00 | 0.00 | 100 | 1013.0 |
| 20260509202047 | 85 | 140 | 10.0 | 17.0 | 0.00 | 0.00 | 0.00 | 100 | 1013.1 |
| 20260509201544 | 86 | 119 | 7.0 | 15.0 | 0.00 | 0.00 | 0.00 | 100 | 1013.0 |
| 20260509201044 | 86 | 127 | 7.0 | 14.0 | 0.00 | 0.00 | 0.00 | 100 | 1013.1 |
| 20260509200544 | 86 | 126 | 7.0 | 14.0 | 0.00 | 0.00 | 0.00 | 100 | 1013.2 |
| 20260509200044 | 86 | 130 | 5.0 | 16.0 | 0.00 | 0.00 | 0.00 | 100 | 1013.2 |
| 20260509195543 | 85 | 147 | 9.0 | 18.0 | 0.00 | 0.00 | 0.00 | 100 | 1013.2 |
| 20260509195043 | 85 | 156 | 9.0 | 18.0 | 0.00 | 0.00 | 0.00 | 100 | 1013.2 |
| 20260509194545 | 85 | 224 | 8.0 | 14.0 | 0.00 | 0.00 | 0.00 | 100 | 1013.4 |
| 20260509194043 | 85 | 182 | 8.0 | 15.0 | 0.00 | 0.00 | 0.00 | 100 | 1013.3 |
| 20260509193543 | 86 | 185 | 6.0 | 19.0 | 0.00 | 0.00 | 0.00 | 100 | 1013.4 |
| 20260509193054 | 85 | 182 | 10.0 | 20.0 | 0.00 | 0.00 | 0.00 | 100 | 1013.4 |
| 20260509192542 | 85 | 134 | 10.0 | 20.0 | 0.00 | 0.00 | 0.00 | 100 | 1013.5 |
| 20260509192040 | 85 | 136 | 9.0 | 19.0 | 0.00 | 0.00 | 0.00 | 100 | 1013.5 |
| 20260509191540 | 86 | 142 | 10.0 | 16.0 | 0.00 | 0.00 | 0.00 | 100 | 1013.7 |
| 20260509191039 | 86 | 150 | 7.0 | 14.0 | 0.00 | 0.00 | 0.00 | 100 | 1013.8 |
| 20260509190541 | 86 | 128 | 7.0 | 17.0 | 0.00 | 0.00 | 0.00 | 100 | 1013.7 |
| 20260509190046 | 87 | 138 | 6.0 | 17.0 | 0.00 | 0.00 | 0.00 | 100 | 1013.8 |
| 20260509185538 | 87 | 151 | 5.0 | 19.0 | 0.00 | 0.00 | 0.00 | 100 | 1013.9 |
| 20260509185037 | 86 | 120 | 9.0 | 19.0 | 0.00 | 0.00 | 0.00 | 100 | 1013.9 |
| 20260509184537 | 86 | 146 | 10.0 | 17.0 | 0.00 | 0.00 | 0.00 | 100 | 1014.0 |
| 20260509184037 | 86 | 130 | 6.0 | 18.0 | 0.00 | 0.00 | 0.00 | 100 | 1014.0 |
| 20260509183607 | 85 | 146 | 7.0 | 19.0 | 0.00 | 0.00 | 0.00 | 100 | 1013.9 |
| 20260509183038 | 85 | 169 | 9.0 | 18.0 | 0.00 | 0.00 | 0.00 | 100 | 1013.9 |
| 20260509182536 | 85 | 138 | 7.0 | 15.0 | 0.00 | 0.00 | 0.00 | 100 | 1014.0 |
| 20260509182036 | 86 | 146 | 8.0 | 18.0 | 0.00 | 0.00 | 0.00 | 100 | 1014.0 |
| 20260509181535 | 85 | 147 | 9.0 | 18.0 | 0.00 | 0.00 | 0.00 | 100 | 1014.1 |
| 20260509181035 | 85 | 127 | 8.0 | 17.0 | 0.00 | 0.00 | 0.00 | 100 | 1014.1 |
| 20260509180534 | 85 | 149 | 10.0 | 18.0 | 0.00 | 0.00 | 0.00 | 100 | 1014.2 |